Vertical_Velocity
5 -1 4 -6 0 -0 -0 2 1 6 -2 4 -2 8 -1 -0 -0 1 -1 -1 3 1
3 1 -2 1 0 -1 2 2 3 -1 9 -6 -7 -4 -4 4 -1 1 0 1 2 -0
6 5 4 3 -2 1 3 -1 -3 2 2 1 -6 -3 -7 8 2 -3 1 4 -2 -3
5 2 7 3 1 1 4 -2 -0 4 4 1 -1 -1 -1 3 0 -2 3 -0 -1 -2
5 2 5 2 2 2 4 5 -1 -2 3 2 1 1 -10 19 1 -1 2 2 1 1
1 3 7 -1 4 2 8 8 3 -1 1 -1 -1 -0 1 0 4 9 6 6 0 3
2 -1 3 2 2 0 5 4 5 4 2 -1 0 1 1 0 -1 -1 -5 2 2 2
3 7 14 3 -1 3 1 2 3 3 2 1 2 0 0 1 1 -1 2 1 -1 -2
4 3 6 0 -8 2 3 2 3 1 3 0 -1 3 2 1 0 1 0 -0 0 1
-7 0 4 1 6 -3 -2 3 2 1 2 2 1 3 2 -0 -0 -0 -0 1 2 0
0 -3 -2 -1 3 -0 3 1 2 4 4 5 2 2 1 1 -1 0 -0 -1 1 0
10 2 2 4 1 -2 0 1 -3 11 1 2 4 -1 -1 -1 -2 -0 1 1 -1 1
4 7 11 -2 1 6 3 20 10 11 -4 0 2 1 1 -2 -0 -1 2 1 1 -2
3 1 4 14 10 1 4 4 -2 -4 -3 -2 -1 2 -1 -6 1 3 0 -0 -1 1
Height
3041 3048 3054 3057 3064 3070 3075 3081 3088 3091 3095 3099 3103 3106 3110 3115 3118 3121 3124 3127 3129 3133
3029 3036 3043 3049 3055 3061 3067 3072 3077 3082 3085 3089 3095 3100 3104 3107 3111 3115 3118 3122 3124 3127
3016 3025 3033 3040 3045 3051 3058 3063 3067 3073 3077 3081 3087 3092 3096 3099 3103 3107 3111 3115 3118 3121
3006 3013 3023 3029 3036 3042 3049 3054 3059 3065 3070 3075 3079 3084 3089 3092 3096 3100 3105 3108 3111 3115
2996 3004 3012 3019 3027 3034 3039 3044 3050 3056 3062 3067 3072 3076 3081 3084 3089 3094 3097 3101 3104 3108
2987 2995 3002 3009 3017 3024 3031 3036 3042 3048 3053 3058 3064 3068 3072 3077 3081 3086 3090 3092 3097 3101
2979 2986 2993 3000 3007 3014 3021 3027 3034 3040 3046 3051 3055 3059 3064 3068 3073 3078 3082 3085 3089 3092
2970 2979 2985 2992 2998 3005 3012 3019 3026 3032 3038 3043 3047 3051 3055 3059 3064 3068 3073 3076 3079 3082
2961 2969 2977 2983 2991 2997 3004 3011 3018 3024 3029 3034 3038 3044 3048 3051 3055 3059 3063 3066 3071 3074
2953 2960 2968 2975 2981 2989 2995 3002 3008 3014 3020 3025 3031 3036 3040 3043 3046 3049 3053 3057 3061 3064
2944 2952 2958 2965 2973 2980 2986 2992 2999 3005 3011 3016 3020 3026 3030 3034 3036 3039 3043 3047 3051 3054
2936 2943 2951 2957 2964 2969 2976 2983 2989 2995 2999 3004 3010 3015 3019 3023 3025 3029 3034 3037 3040 3044
2931 2935 2941 2948 2955 2960 2968 2974 2978 2984 2990 2994 2999 3004 3009 3012 3015 3019 3023 3027 3030 3033
2930 2932 2934 2938 2944 2952 2958 2963 2969 2974 2979 2984 2989 2994 2998 3001 3005 3010 3014 3017 3020 3022